Weather History for KHLR - September, 2013

Change the Weather History Date:

Saturday, September 14, 2013

  Actual Average Record
Temperature  
Mean Temperature 86 °F -  
Max Temperature 98 °F 88 °F 102 °F (2011)
Min Temperature 75 °F 69 °F 62 °F (1999)
Cooling Degree Days 22    
Growing Degree Days 36 (Base 50)    
Moisture  
Dew Point 64 °F    
Average Humidity 47    
Maximum Humidity 73    
Minimum Humidity 30    
Precipitation  
Precipitation 0.00 in - - ()
Sea Level Pressure  
Sea Level Pressure 29.97 in    
Wind  
Wind Speed 2 mph (SE)    
Max Wind Speed 9 mph    
Max Gust Speed 20 mph    
Visibility 10 miles    
Events      
Averages and records for this station are not official NWS values.
T = Trace of Precipitation, MM = Missing Value Source: NWS Daily Summary

Daily Weather History Graph

Daily Weather History Graph

Search for Another Location

Airport or City:

Trip Planner

Search our weather history database for the weather conditions in past years. The results will help you decide how hot, cold, wet, or windy it might be!

Date:

Astronomy

Sep. 14, 2013 Rise Set
Actual Time 7:14 AM CDT 7:37 PM CDT
Civil Twilight 6:50 AM CDT 8:01 PM CDT
Nautical Twilight 6:21 AM CDT 8:30 PM CDT
Astronomical Twilight 5:53 AM CDT 8:58 PM CDT
Moon 4:05 PM CDT (9/14) 2:03 AM CDT (9/14)
Length of Visible Light 13h 11m
Length of Day
12h 22m
Waxing Gibbous, 72% of the Moon is Illuminated
Sep 14
Waxing Gibbous
Sep 19
Full
Sep 26
Last Quarter
Oct 4
New
Oct 11
First Quarter

Hourly Weather History & Observations

Time (CDT) Temp. Heat Index Dew Point Humidity Pressure Visibility Wind Dir Wind Speed Gust Speed Precip Events Conditions
12:56 AM 84.0 °F 84.5 °F 62.1 °F 47% 29.95 in 10.0 mi Calm Calm - N/A   Clear
1:56 AM 82.9 °F 83.7 °F 62.1 °F 49% 29.95 in 10.0 mi Calm Calm - N/A   Clear
2:56 AM 81.0 °F 82.5 °F 64.0 °F 56% 29.96 in 10.0 mi Calm Calm - N/A   Clear
3:56 AM 79.0 °F - 64.0 °F 60% 29.95 in 10.0 mi Calm Calm - N/A   Clear
4:56 AM 78.1 °F - 64.0 °F 62% 29.96 in 10.0 mi Calm Calm - N/A   Mostly Cloudy
5:56 AM 75.9 °F - 64.9 °F 69% 29.97 in 10.0 mi Calm Calm - N/A   Partly Cloudy
6:56 AM 75.9 °F - 64.9 °F 69% 29.98 in 10.0 mi Calm Calm - N/A   Partly Cloudy
7:56 AM 75.0 °F - 66.0 °F 73% 29.99 in 10.0 mi Calm Calm - N/A   Clear
8:56 AM 82.9 °F 84.6 °F 64.9 °F 54% 30.00 in 10.0 mi WSW 4.6 mph - N/A   Clear
9:56 AM 88.0 °F 88.4 °F 62.1 °F 42% 30.01 in 10.0 mi West 3.5 mph - N/A   Clear
10:56 AM 91.0 °F 92.6 °F 64.0 °F 41% 30.02 in 10.0 mi SE 4.6 mph - N/A   Clear
11:56 AM 93.0 °F 93.8 °F 62.1 °F 36% 30.01 in 10.0 mi SE 6.9 mph - N/A   Clear
12:56 PM 95.0 °F 95.2 °F 61.0 °F 32% 30.00 in 10.0 mi Calm Calm - N/A   Clear
1:56 PM 97.0 °F 97.8 °F 62.1 °F 31% 29.97 in 10.0 mi East 5.8 mph - N/A   Clear
2:56 PM 97.0 °F 97.8 °F 62.1 °F 31% 29.95 in 10.0 mi Variable 3.5 mph - N/A   Clear
3:56 PM 98.1 °F 99.1 °F 62.1 °F 30% 29.93 in 10.0 mi East 9.2 mph - N/A   Partly Cloudy
4:56 PM 97.0 °F 97.4 °F 61.0 °F 30% 29.91 in 10.0 mi East 9.2 mph 16.1 mph N/A   Clear
5:56 PM 96.1 °F 96.4 °F 61.0 °F 31% 29.92 in 10.0 mi ESE 6.9 mph - N/A   Clear
6:56 PM 93.0 °F 93.0 °F 61.0 °F 34% 29.93 in 10.0 mi ESE 4.6 mph - N/A   Clear
7:56 PM 90.0 °F 90.6 °F 63.0 °F 40% 29.94 in 10.0 mi ESE 5.8 mph - N/A   Partly Cloudy
8:56 PM 89.1 °F 91.0 °F 64.9 °F 45% 29.97 in 10.0 mi ESE 6.9 mph - N/A   Scattered Clouds
9:56 PM 88.0 °F 90.3 °F 66.0 °F 48% 29.99 in 10.0 mi ESE 5.8 mph - N/A   Mostly Cloudy
10:56 PM 84.9 °F 87.6 °F 66.9 °F 55% 30.00 in 10.0 mi SSE 8.1 mph - N/A   Clear
11:56 PM 84.0 °F 87.8 °F 69.1 °F 61% 30.00 in 10.0 mi SSE 6.9 mph 19.6 mph N/A   Clear